Home > Weather > Siegen > Past weeks

Flag for Germany Weather for the Past 2 Weeks in Siegen, North Rhine-Westphalia, Germany

Now
34 °F

Partly sunny.


Feels Like: 26 °F
Forecast: 32 / 40 °F
Wind: 9 mph from Southeast

Location: Hessen

Current Time: Feb 12, 2016 at 3:12:42 PM

Latest Report: Feb 12, 2016 at 2:20 PM


Visibility: N/A

Pressure: 29.45 "Hg

Humidity: 93%

Dew point: 32 °F

Location of SiegenLocation

Historic Weather in Siegen — Graph

°F

Siegen Temperature Yesterday

Maximum temperature yesterday: 41 °F (at 1:50 PM)
Minimum temperature yesterday: 32 °F (at 7:50 AM)
Average temperature yesterday: 35 °F

High & Low Weather Summary for the Past Weeks

 TemperatureHumidityPressure
High50 °F (Feb 6, 1:50 PM)100% (Jan 29, 7:50 AM)30.27 "Hg (Jan 29, 7:50 AM)
Low28 °F (Feb 12, 8:20 AM)66% (Jan 28, 3:50 PM)28.91 "Hg (Feb 9, 5:20 PM)
Average38 °F95%29.80 "Hg
* Reported Jan 28 1:20 PM — Feb 12 1:50 PM, Siegen, Weather by CustomWeather, © 2016

Note: Actual official high and low records may vary slightly from our data, if they occured in-between our weather recording intervals... More about our weather records

Advertising

Siegen Weather History for the Previous 24 Hours

 ConditionsComfort  
Time TempWeatherWind HumidityBarometerVisibility
1:50 PM
Fri, Feb 12
32 °FPartly sunny.9 mph93%29.45 "HgN/A
1:20 PM34 °FBroken clouds.9 mph93%29.45 "HgN/A
12:50 PM32 °FBroken clouds.10 mph100%29.47 "HgN/A
12:20 PM32 °FPartly sunny.12 mph93%29.50 "HgN/A
11:50 AM32 °FPartly sunny.9 mph93%29.50 "HgN/A
11:20 AM32 °FPartly sunny.8 mph93%29.50 "HgN/A
10:50 AM30 °FPartly sunny.9 mph100%29.53 "HgN/A
10:20 AM30 °FPartly sunny.8 mph93%29.53 "HgN/A
9:50 AM30 °FPartly sunny.7 mph100%29.56 "HgN/A
9:20 AM30 °FPartly sunny.6 mph93%29.56 "HgN/A
8:50 AM30 °FPartly sunny.5 mph100%29.56 "HgN/A
8:20 AM28 °FLow clouds.7 mph100%29.56 "Hg4 mi
7:50 AM30 °FLow clouds.9 mph93%29.56 "Hg4 mi
8:50 PM
Thu, Feb 11
32 °FPartly cloudy.8 mph100%29.65 "Hg4 mi
8:20 PM34 °FPartly cloudy.8 mph100%29.65 "HgN/A
7:50 PM34 °FPartly cloudy.5 mph100%29.62 "HgN/A
7:20 PM32 °FPassing clouds.3 mph100%29.65 "HgN/A
6:50 PM34 °FPassing clouds.7 mph93%29.65 "HgN/A
6:20 PM34 °FPassing clouds.6 mph93%29.62 "HgN/A
5:50 PM34 °FPassing clouds.5 mph87%29.62 "HgN/A
5:20 PM36 °FPartly sunny.6 mph81%29.62 "HgN/A
4:50 PM36 °FPartly sunny.5 mph81%29.62 "HgN/A
4:20 PM36 °FPartly sunny.5 mph81%29.62 "HgN/A
3:50 PM37 °FPartly sunny.6 mph81%29.62 "HgN/A
3:20 PM39 °FPartly sunny.6 mph81%29.62 "HgN/A
Weather by CustomWeather, © 2016

See weather overviewHow to use our weather pages